DLH62T CYXY-PANC

Flight info

Callsign DLH62T
Flight time 1h 20m
Altitude 38000
Route JAGIT DCT TMSON PTERS3
Aircraft A320/M-SDE3FGHIRWY/LB1

Departure

Time 2026-05-08 06:59
Airport Whitehorse / Erik Nielsen International Airport (CYXY)

Arrival

Time 2026-05-08 08:19
Airport Ted Stevens Anchorage International Airport (PANC)
Time Latitude Longitude Altitude Speed Heading
2026-05-08 06:49 60.71423 -135.07502 2303 ft 0 kts 269°
2026-05-08 06:54 60.71423 -135.07478 2304 ft 8 kts 268°
2026-05-08 06:54 60.71423 -135.07416 2303 ft 2 kts 277°
2026-05-08 06:54 60.71421 -135.07381 2299 ft 2 kts 303°
2026-05-08 06:55 60.71407 -135.07355 2301 ft 2 kts 336°
2026-05-08 06:55 60.71399 -135.07345 2304 ft 0 kts 351°
2026-05-08 06:56 60.71438 -135.07369 2306 ft 8 kts 339°
2026-05-08 06:56 60.71505 -135.07431 2304 ft 18 kts 336°
2026-05-08 06:56 60.71632 -135.07536 2294 ft 20 kts 340°
2026-05-08 06:56 60.71782 -135.07644 2291 ft 25 kts 340°
2026-05-08 06:57 60.71957 -135.07778 2283 ft 22 kts 339°
2026-05-08 06:57 60.72024 -135.07829 2299 ft 14 kts 339°
2026-05-08 06:57 60.72127 -135.07839 2281 ft 11 kts 55°
2026-05-08 06:57 60.72146 -135.07685 2280 ft 11 kts 104°
2026-05-08 06:58 60.72112 -135.07627 2280 ft 0 kts 159°
2026-05-08 06:58 60.72030 -135.07561 2278 ft 46 kts 158°
2026-05-08 06:58 60.71496 -135.07150 2306 ft 116 kts 159°
2026-05-08 06:58 60.70572 -135.06438 2414 ft 157 kts 159°
2026-05-08 06:59 60.69581 -135.05627 3110 ft 153 kts 159°
2026-05-08 06:59 60.68569 -135.04809 3758 ft 165 kts 159°
2026-05-08 06:59 60.67426 -135.03912 4255 ft 187 kts 159°
2026-05-08 06:59 60.66099 -135.03231 4625 ft 208 kts 181°
2026-05-08 07:00 60.64746 -135.04167 5440 ft 209 kts 216°
2026-05-08 07:00 60.63911 -135.06545 6321 ft 217 kts 252°
2026-05-08 07:00 60.63901 -135.09651 7116 ft 224 kts 277°
2026-05-08 07:00 60.64155 -135.12830 7800 ft 236 kts 277°
2026-05-08 07:01 60.64434 -135.16307 8232 ft 261 kts 277°
2026-05-08 07:01 60.64735 -135.20114 8784 ft 280 kts 277°
2026-05-08 07:01 60.65045 -135.24086 9693 ft 286 kts 277°
2026-05-08 07:01 60.65359 -135.28154 10387 ft 300 kts 277°
2026-05-08 07:02 60.65690 -135.32505 10871 ft 318 kts 277°
2026-05-08 07:02 60.66028 -135.37002 11694 ft 323 kts 277°
2026-05-08 07:02 60.66367 -135.41539 12635 ft 325 kts 277°
2026-05-08 07:02 60.66705 -135.46108 13546 ft 327 kts 277°
2026-05-08 07:03 60.67047 -135.50719 14360 ft 330 kts 277°
2026-05-08 07:03 60.67392 -135.55362 15116 ft 333 kts 277°
2026-05-08 07:03 60.67738 -135.60057 15882 ft 336 kts 276°
2026-05-08 07:03 60.68084 -135.64795 16648 ft 339 kts 276°
2026-05-08 07:04 60.68428 -135.69580 17402 ft 342 kts 276°
2026-05-08 07:04 60.68773 -135.74413 18144 ft 346 kts 276°
2026-05-08 07:04 60.69122 -135.79294 18794 ft 349 kts 276°
2026-05-08 07:04 60.69473 -135.84212 19465 ft 351 kts 276°
2026-05-08 07:05 60.69823 -135.89153 20136 ft 352 kts 276°
2026-05-08 07:05 60.70174 -135.94111 20815 ft 354 kts 276°
2026-05-08 07:05 60.70526 -135.99089 21485 ft 355 kts 276°
2026-05-08 07:05 60.70874 -136.04077 22145 ft 356 kts 276°
2026-05-08 07:06 60.71223 -136.09109 22783 ft 358 kts 276°
2026-05-08 07:06 60.71570 -136.14143 23413 ft 359 kts 276°
2026-05-08 07:06 60.71917 -136.19211 23970 ft 361 kts 276°
2026-05-08 07:06 60.72266 -136.24298 24478 ft 362 kts 276°
2026-05-08 07:07 60.72615 -136.29400 24986 ft 363 kts 275°
2026-05-08 07:07 60.72962 -136.34514 25509 ft 364 kts 275°
2026-05-08 07:07 60.73306 -136.39640 26036 ft 365 kts 275°
2026-05-08 07:07 60.73645 -136.44773 26519 ft 366 kts 275°
2026-05-08 07:08 60.73982 -136.49938 27011 ft 367 kts 274°
2026-05-08 07:08 60.74320 -136.55122 27466 ft 369 kts 274°
2026-05-08 07:08 60.74660 -136.60329 27954 ft 370 kts 274°
2026-05-08 07:08 60.75000 -136.65546 28429 ft 370 kts 274°
2026-05-08 07:09 60.75338 -136.70779 28887 ft 372 kts 274°
2026-05-08 07:09 60.75671 -136.76033 29344 ft 373 kts 274°
2026-05-08 07:09 60.76007 -136.81308 29794 ft 375 kts 274°
2026-05-08 07:09 60.76343 -136.86595 30233 ft 376 kts 273°
2026-05-08 07:10 60.76679 -136.91915 30598 ft 378 kts 273°
2026-05-08 07:10 60.77012 -136.97254 30957 ft 379 kts 273°
2026-05-08 07:10 60.77346 -137.02608 31298 ft 380 kts 273°
2026-05-08 07:10 60.77681 -137.07976 31647 ft 380 kts 273°
2026-05-08 07:11 60.78013 -137.13347 32064 ft 380 kts 273°
2026-05-08 07:11 60.78342 -137.18690 32551 ft 377 kts 272°
2026-05-08 07:11 60.78666 -137.24004 33100 ft 373 kts 272°
2026-05-08 07:11 60.78983 -137.29251 33669 ft 369 kts 272°
2026-05-08 07:12 60.79294 -137.34446 34209 ft 366 kts 272°
2026-05-08 07:12 60.79600 -137.39592 34597 ft 364 kts 272°
2026-05-08 07:12 60.79904 -137.44752 34867 ft 366 kts 272°
2026-05-08 07:12 60.80204 -137.49938 35106 ft 368 kts 272°
2026-05-08 07:13 60.80501 -137.55151 35345 ft 369 kts 272°
2026-05-08 07:13 60.80798 -137.60391 35585 ft 371 kts 272°
2026-05-08 07:13 60.81096 -137.65656 35817 ft 373 kts 272°
2026-05-08 07:13 60.81397 -137.70947 36044 ft 375 kts 272°
2026-05-08 07:14 60.81698 -137.76250 36257 ft 376 kts 272°
2026-05-08 07:14 60.81897 -137.79791 36386 ft 378 kts 272°
2026-05-08 07:14 60.82196 -137.85158 36572 ft 380 kts 272°
2026-05-08 07:14 60.82494 -137.90551 36776 ft 381 kts 272°
2026-05-08 07:15 60.82792 -137.95974 36979 ft 383 kts 272°
2026-05-08 07:15 60.83092 -138.01404 37226 ft 384 kts 273°
2026-05-08 07:15 60.83392 -138.06844 37456 ft 386 kts 272°
2026-05-08 07:15 60.83689 -138.12341 37643 ft 388 kts 273°
2026-05-08 07:16 60.83980 -138.17831 37787 ft 388 kts 273°
2026-05-08 07:16 60.84271 -138.23349 37948 ft 390 kts 273°
2026-05-08 07:16 60.84563 -138.28894 38079 ft 392 kts 273°
2026-05-08 07:16 60.84852 -138.34448 38098 ft 391 kts 272°
2026-05-08 07:17 60.85422 -138.45553 38077 ft 391 kts 272°
2026-05-08 07:17 60.85981 -138.56651 38077 ft 391 kts 272°
2026-05-08 07:18 60.86530 -138.67754 38084 ft 391 kts 272°
2026-05-08 07:18 60.87078 -138.78859 38065 ft 391 kts 272°
2026-05-08 07:19 60.87616 -138.89965 38098 ft 392 kts 272°
2026-05-08 07:19 60.88138 -139.01090 38071 ft 392 kts 272°
2026-05-08 07:20 60.88651 -139.12230 38071 ft 392 kts 272°
2026-05-08 07:20 60.89162 -139.23398 38079 ft 393 kts 272°
2026-05-08 07:21 60.89668 -139.34574 38068 ft 393 kts 272°
2026-05-08 07:21 60.90154 -139.45676 38070 ft 393 kts 271°
2026-05-08 07:22 60.90629 -139.56849 38069 ft 393 kts 271°
2026-05-08 07:22 60.91100 -139.68027 38102 ft 392 kts 271°
2026-05-08 07:23 60.91564 -139.79233 38081 ft 395 kts 271°
2026-05-08 07:23 60.92018 -139.90479 38062 ft 395 kts 271°
2026-05-08 07:24 60.92464 -140.01739 38057 ft 395 kts 271°
2026-05-08 07:24 60.92902 -140.13018 38051 ft 396 kts 271°
2026-05-08 07:25 60.93330 -140.24321 38057 ft 397 kts 271°
2026-05-08 07:26 60.93961 -140.41298 38062 ft 397 kts 271°
2026-05-08 07:26 60.94368 -140.52622 38096 ft 397 kts 271°
2026-05-08 07:27 60.94764 -140.63979 38064 ft 398 kts 271°
2026-05-08 07:27 60.95160 -140.75354 38079 ft 399 kts 271°
2026-05-08 07:28 60.95535 -140.86756 38074 ft 399 kts 270°
2026-05-08 07:28 60.95896 -140.98175 38075 ft 400 kts 270°
2026-05-08 07:29 60.96277 -141.09592 38080 ft 401 kts 271°
2026-05-08 07:29 60.96682 -141.21042 38082 ft 401 kts 271°
2026-05-08 07:30 60.97075 -141.32494 38083 ft 401 kts 271°
2026-05-08 07:30 60.97458 -141.43949 38104 ft 402 kts 270°
2026-05-08 07:31 60.97828 -141.55437 38100 ft 402 kts 270°
2026-05-08 07:31 60.98183 -141.66937 38096 ft 403 kts 270°
2026-05-08 07:32 60.98533 -141.78448 38090 ft 403 kts 270°
2026-05-08 07:32 60.98873 -141.89972 38089 ft 403 kts 270°
2026-05-08 07:33 60.99200 -142.01502 38091 ft 404 kts 270°
2026-05-08 07:33 60.99522 -142.13050 38096 ft 403 kts 270°
2026-05-08 07:34 60.99832 -142.24592 38095 ft 404 kts 270°
2026-05-08 07:34 61.00122 -142.36144 38095 ft 404 kts 269°
2026-05-08 07:35 61.00414 -142.47682 38095 ft 404 kts 269°
2026-05-08 07:35 61.00700 -142.59235 38084 ft 404 kts 270°
2026-05-08 07:36 61.00968 -142.70732 38088 ft 405 kts 269°
2026-05-08 07:36 61.01230 -142.82324 38085 ft 405 kts 269°
2026-05-08 07:37 61.01480 -142.93925 38097 ft 406 kts 269°
2026-05-08 07:37 61.01723 -143.05636 38127 ft 406 kts 269°
2026-05-08 07:38 61.01952 -143.17215 38117 ft 407 kts 269°
2026-05-08 07:38 61.02172 -143.28970 38112 ft 408 kts 269°
2026-05-08 07:39 61.02388 -143.40581 38101 ft 408 kts 269°
2026-05-08 07:39 61.02591 -143.52287 38102 ft 409 kts 269°
2026-05-08 07:40 61.02785 -143.63995 38108 ft 408 kts 269°
2026-05-08 07:40 61.02962 -143.75706 38114 ft 409 kts 269°
2026-05-08 07:41 61.03134 -143.87424 38139 ft 409 kts 268°
2026-05-08 07:41 61.03303 -143.99215 38120 ft 409 kts 268°
2026-05-08 07:42 61.03460 -144.10886 38127 ft 410 kts 268°
2026-05-08 07:42 61.03604 -144.22644 38125 ft 410 kts 268°
2026-05-08 07:43 61.03738 -144.34489 38122 ft 410 kts 268°
2026-05-08 07:43 61.03857 -144.46156 38122 ft 410 kts 268°
2026-05-08 07:44 61.03968 -144.57915 38130 ft 410 kts 268°
2026-05-08 07:44 61.04073 -144.69678 38156 ft 410 kts 268°
2026-05-08 07:45 61.04166 -144.81454 38138 ft 411 kts 268°
2026-05-08 07:45 61.04246 -144.93245 38130 ft 411 kts 268°
2026-05-08 07:46 61.04308 -145.05037 38115 ft 411 kts 267°
2026-05-08 07:46 61.04389 -145.16843 38121 ft 412 kts 269°
2026-05-08 07:47 61.04826 -145.28627 38124 ft 413 kts 272°
2026-05-08 07:47 61.05414 -145.40407 38116 ft 412 kts 272°
2026-05-08 07:48 61.05939 -145.52189 38145 ft 412 kts 271°
2026-05-08 07:48 61.06383 -145.63979 38152 ft 412 kts 271°
2026-05-08 07:49 61.06796 -145.75776 38160 ft 412 kts 271°
2026-05-08 07:49 61.07217 -145.87562 38169 ft 412 kts 271°
2026-05-08 07:50 61.07635 -145.99365 38195 ft 412 kts 271°
2026-05-08 07:50 61.08042 -146.11177 38204 ft 412 kts 271°
2026-05-08 07:51 61.08449 -146.22984 38194 ft 412 kts 270°
2026-05-08 07:51 61.08836 -146.34794 38140 ft 412 kts 270°
2026-05-08 07:52 61.09207 -146.46618 38130 ft 412 kts 270°
2026-05-08 07:52 61.09570 -146.58489 37462 ft 418 kts 270°
2026-05-08 07:52 61.09752 -146.64513 36700 ft 420 kts 270°
2026-05-08 07:53 61.09932 -146.70509 36222 ft 415 kts 270°
2026-05-08 07:53 61.10106 -146.76435 35691 ft 411 kts 269°
2026-05-08 07:53 61.10274 -146.82310 35184 ft 407 kts 269°
2026-05-08 07:53 61.10439 -146.88129 34694 ft 403 kts 269°
2026-05-08 07:54 61.10603 -146.93896 34191 ft 400 kts 269°
2026-05-08 07:54 61.10764 -146.99597 33645 ft 395 kts 269°
2026-05-08 07:54 61.10921 -147.05229 33171 ft 389 kts 268°
2026-05-08 07:54 61.11073 -147.10786 32705 ft 385 kts 268°
2026-05-08 07:55 61.11216 -147.16270 32226 ft 379 kts 268°
2026-05-08 07:55 61.11355 -147.21686 31768 ft 375 kts 268°
2026-05-08 07:55 61.11489 -147.27038 31320 ft 370 kts 268°
2026-05-08 07:55 61.11619 -147.32321 30883 ft 366 kts 268°
2026-05-08 07:56 61.11748 -147.37545 30455 ft 362 kts 267°
2026-05-08 07:56 61.11877 -147.42714 30006 ft 358 kts 267°
2026-05-08 07:56 61.11960 -147.46090 29716 ft 354 kts 267°
2026-05-08 07:56 61.12081 -147.51128 29320 ft 348 kts 267°
2026-05-08 07:57 61.12198 -147.56082 28928 ft 342 kts 267°
2026-05-08 07:57 61.12309 -147.60946 28550 ft 335 kts 267°
2026-05-08 07:57 61.12451 -147.67255 28064 ft 328 kts 266°
2026-05-08 07:57 61.12555 -147.71927 27692 ft 323 kts 267°
2026-05-08 07:58 61.12658 -147.76533 27329 ft 318 kts 266°
2026-05-08 07:58 61.12725 -147.79609 27078 ft 315 kts 266°
2026-05-08 07:58 61.12821 -147.84096 26696 ft 311 kts 266°
2026-05-08 07:58 61.12909 -147.88549 26341 ft 308 kts 266°
2026-05-08 07:59 61.12995 -147.92942 25947 ft 305 kts 266°
2026-05-08 07:59 61.13083 -147.97251 25566 ft 302 kts 266°
2026-05-08 07:59 61.13172 -148.01613 25185 ft 299 kts 266°
2026-05-08 07:59 61.13259 -148.05889 24801 ft 296 kts 266°
2026-05-08 08:00 61.13339 -148.10146 24396 ft 295 kts 266°
2026-05-08 08:00 61.13416 -148.14365 24024 ft 293 kts 266°
2026-05-08 08:00 61.13493 -148.18572 23611 ft 291 kts 266°
2026-05-08 08:00 61.13573 -148.22761 23188 ft 290 kts 266°
2026-05-08 08:01 61.13647 -148.26917 22796 ft 288 kts 266°
2026-05-08 08:01 61.13718 -148.31051 22423 ft 287 kts 266°
2026-05-08 08:01 61.13786 -148.35160 22053 ft 286 kts 266°
2026-05-08 08:01 61.13854 -148.39222 21686 ft 285 kts 266°
2026-05-08 08:02 61.13921 -148.43316 21326 ft 284 kts 266°
2026-05-08 08:02 61.14021 -148.47394 20963 ft 286 kts 271°
2026-05-08 08:02 61.14448 -148.51454 20550 ft 291 kts 282°
2026-05-08 08:02 61.15145 -148.55407 20154 ft 292 kts 283°
2026-05-08 08:03 61.15850 -148.59362 19762 ft 294 kts 283°
2026-05-08 08:03 61.16552 -148.63344 19411 ft 295 kts 283°
2026-05-08 08:03 61.17255 -148.67340 18958 ft 297 kts 283°
2026-05-08 08:03 61.17962 -148.71376 18566 ft 298 kts 283°
2026-05-08 08:04 61.18667 -148.75409 18121 ft 299 kts 284°
2026-05-08 08:04 61.19374 -148.79458 17719 ft 298 kts 284°
2026-05-08 08:04 61.20080 -148.83502 17322 ft 298 kts 284°
2026-05-08 08:04 61.20782 -148.87527 16938 ft 296 kts 284°
2026-05-08 08:05 61.21479 -148.91533 16559 ft 294 kts 284°
2026-05-08 08:05 61.22170 -148.95523 16174 ft 293 kts 284°
2026-05-08 08:05 61.22856 -148.99501 15813 ft 293 kts 284°
2026-05-08 08:05 61.23540 -149.03485 15439 ft 293 kts 284°
2026-05-08 08:06 61.24209 -149.07482 15076 ft 291 kts 281°
2026-05-08 08:06 61.24574 -149.11597 14756 ft 292 kts 272°
2026-05-08 08:06 61.24821 -149.15806 14440 ft 294 kts 273°
2026-05-08 08:06 61.25077 -149.20016 14102 ft 295 kts 273°
2026-05-08 08:07 61.25336 -149.24248 13773 ft 295 kts 273°
2026-05-08 08:07 61.25590 -149.28469 13418 ft 294 kts 273°
2026-05-08 08:07 61.25841 -149.32670 13115 ft 294 kts 273°
2026-05-08 08:07 61.26089 -149.36880 12782 ft 293 kts 273°
2026-05-08 08:08 61.26333 -149.41085 12463 ft 293 kts 274°
2026-05-08 08:08 61.26578 -149.45282 12137 ft 292 kts 273°
2026-05-08 08:08 61.26822 -149.49466 11820 ft 291 kts 274°
2026-05-08 08:08 61.27063 -149.53647 11503 ft 290 kts 273°
2026-05-08 08:09 61.27296 -149.57747 11188 ft 289 kts 273°
2026-05-08 08:09 61.27528 -149.61884 10874 ft 288 kts 273°
2026-05-08 08:09 61.27759 -149.66011 10559 ft 287 kts 274°
2026-05-08 08:09 61.28077 -149.70114 10152 ft 290 kts 283°
2026-05-08 08:10 61.28840 -149.74026 9652 ft 295 kts 297°
2026-05-08 08:10 61.29917 -149.77679 9127 ft 297 kts 300°
2026-05-08 08:10 61.31000 -149.81346 8593 ft 298 kts 299°
2026-05-08 08:10 61.32080 -149.85029 8089 ft 298 kts 299°
2026-05-08 08:11 61.33159 -149.88719 7586 ft 298 kts 299°
2026-05-08 08:11 61.34259 -149.92385 7092 ft 299 kts 305°
2026-05-08 08:11 61.35754 -149.95366 6605 ft 300 kts 326°
2026-05-08 08:11 61.37655 -149.97108 6110 ft 299 kts 345°
2026-05-08 08:12 61.39661 -149.98236 5604 ft 298 kts 345°
2026-05-08 08:12 61.41656 -149.99369 5096 ft 296 kts 344°
2026-05-08 08:12 61.43503 -150.01169 4596 ft 294 kts 320°
2026-05-08 08:12 61.44616 -150.04588 4304 ft 281 kts 285°
2026-05-08 08:13 61.44637 -150.08506 4068 ft 266 kts 251°
2026-05-08 08:13 61.43694 -150.11649 3822 ft 252 kts 219°
2026-05-08 08:13 61.42190 -150.13251 3591 ft 239 kts 189°
2026-05-08 08:13 61.40576 -150.13113 3356 ft 230 kts 165°
2026-05-08 08:14 61.39057 -150.12246 3129 ft 224 kts 163°
2026-05-08 08:14 61.37583 -150.11393 3012 ft 215 kts 163°
2026-05-08 08:14 61.36186 -150.10598 3003 ft 201 kts 164°
2026-05-08 08:14 61.34897 -150.09867 2996 ft 185 kts 163°
2026-05-08 08:15 61.33672 -150.09174 3009 ft 179 kts 163°
2026-05-08 08:15 61.32479 -150.08498 2913 ft 177 kts 163°
2026-05-08 08:15 61.31289 -150.07826 2705 ft 177 kts 163°
2026-05-08 08:15 61.30097 -150.07152 2481 ft 176 kts 163°
2026-05-08 08:16 61.28930 -150.06494 2211 ft 172 kts 164°
2026-05-08 08:16 61.27809 -150.05862 1965 ft 160 kts 164°
2026-05-08 08:16 61.26772 -150.05278 1723 ft 149 kts 163°
2026-05-08 08:16 61.25800 -150.04731 1502 ft 141 kts 163°
2026-05-08 08:17 61.24856 -150.04197 1307 ft 141 kts 164°
2026-05-08 08:17 61.23901 -150.03660 1092 ft 142 kts 164°
2026-05-08 08:17 61.22949 -150.03124 863 ft 142 kts 164°
2026-05-08 08:17 61.22004 -150.02598 661 ft 139 kts 164°
2026-05-08 08:18 61.21090 -150.02087 466 ft 133 kts 163°
2026-05-08 08:18 61.20213 -150.01601 273 ft 129 kts 163°
2026-05-08 08:18 61.19366 -150.01114 127 ft 122 kts 164°
2026-05-08 08:18 61.18738 -150.00753 127 ft 54 kts 165°
2026-05-08 08:19 61.18394 -150.00567 123 ft 49 kts 165°
2026-05-08 08:19 61.18091 -150.00394 123 ft 40 kts 165°
2026-05-08 08:19 61.17860 -150.00163 122 ft 31 kts 138°
2026-05-08 08:19 61.17751 -149.99940 130 ft 21 kts 135°
2026-05-08 08:20 61.17665 -149.99709 130 ft 21 kts 87°
2026-05-08 08:20 61.17708 -149.99396 133 ft 24 kts 70°
2026-05-08 08:20 61.17695 -149.99125 132 ft 18 kts 135°
2026-05-08 08:20 61.17680 -149.98906 133 ft 13 kts 64°
2026-05-08 08:21 61.17743 -149.98854 130 ft 10 kts 343°
2026-05-08 08:21 61.17768 -149.98872 132 ft 0 kts 342°